Wind_Speed
37 36 26 24 24 24 25 28 29 31 33 30 23 19 21 23 24 22 24 22 20 25 22 8 29 31 27 29 36 39 40 40 40 42 42 43 48 52 46 48 51 54 54 51
33 30 24 24 23 25 26 27 28 30 31 27 24 20 21 24 23 22 21 26 15 20 24 13 9 21 18 29 37 43 41 44 40 29 36 42 49 58 52 44 52 51 47 51
32 26 24 24 23 25 26 27 28 29 27 26 22 23 22 22 23 23 16 21 12 18 17 16 4 22 25 26 29 18 9 17 31 33 18 35 43 52 55 47 61 57 47 45
28 25 26 23 24 24 26 27 29 28 26 26 24 23 20 20 22 26 16 19 20 21 18 23 13 7 12 27 25 24 21 17 20 29 21 15 11 21 31 31 41 62 46 36
26 22 24 24 24 26 28 29 30 28 27 28 25 26 21 21 21 23 23 16 18 19 13 17 14 14 7 12 21 17 14 16 18 18 12 9 9 12 14 16 17 18 28 29
22 23 24 24 25 27 29 31 28 29 30 30 29 27 26 25 22 21 27 24 20 17 11 12 13 8 9 6 14 14 15 13 11 11 12 13 13 13 15 18 20 21 23 26
23 22 24 25 26 28 30 30 29 31 31 29 29 30 26 29 28 26 21 22 22 22 21 12 9 10 9 8 8 16 15 16 15 16 17 15 16 17 17 18 19 21 22 24
22 23 26 26 29 30 31 32 34 34 30 29 29 30 29 26 28 28 24 22 22 20 20 18 16 13 12 10 10 12 16 12 12 12 13 17 22 18 17 17 17 18 20 22
22 24 26 29 31 32 34 36 35 33 29 29 29 28 29 29 30 26 24 24 24 22 22 24 23 23 17 15 14 12 15 17 14 15 15 15 16 19 21 22 22 21 22 23
24 23 28 30 32 36 38 38 36 34 33 33 34 32 28 30 29 28 24 23 22 23 23 23 25 24 22 22 19 16 15 16 21 19 16 15 17 20 22 24 26 28 27 28
23 26 30 33 35 37 37 37 36 37 38 38 38 36 31 31 30 27 27 24 21 18 19 23 25 27 24 23 25 22 20 18 18 20 23 22 21 22 24 24 24 25 26 27
24 29 32 35 36 35 35 36 36 35 35 34 30 28 28 29 31 28 28 24 24 19 15 18 24 26 25 24 26 25 23 22 23 22 22 23 23 24 26 26 27 26 25 25
27 30 33 33 32 33 33 32 30 27 24 20 22 23 25 27 29 30 27 21 25 24 19 14 17 23 27 25 25 26 26 25 25 26 26 25 25 25 24 25 25 26 26 26
29 29 28 29 29 27 25 23 18 13 15 16 18 21 23 26 29 31 29 24 23 26 24 20 16 16 18 25 27 27 29 26 27 26 28 28 28 27 27 27 26 27 27 28
23 23 25 23 19 19 19 16 12 14 14 16 17 19 22 24 26 28 32 30 28 24 26 25 23 21 19 19 20 24 29 27 27 29 27 28 31 29 27 26 26 28 29 29
17 17 18 19 19 18 17 14 14 16 18 18 18 19 20 22 24 26 29 31 31 28 25 27 26 25 25 24 22 22 23 26 26 27 29 29 29 30 30 29 29 29 29 29
14 15 17 17 17 18 18 19 20 20 20 19 11 12 16 20 21 22 25 29 31 32 30 26 27 29 30 29 29 27 26 26 28 28 28 29 30 31 31 32 31 31 32 32
9 13 13 14 15 16 17 17 18 17 19 18 16 15 16 17 17 18 18 21 25 31 32 32 31 29 31 33 34 32 31 30 29 29 29 29 29 30 31 32 33 33 34 34
11 12 14 15 16 16 15 15 15 17 18 20 20 21 21 20 21 21 20 20 20 22 26 29 32 32 32 32 34 37 39 37 35 34 35 35 34 33 33 33 34 34 34 34
10 12 14 17 19 19 19 20 21 22 23 24 25 25 25 25 25 26 27 27 27 27 26 26 27 29 31 33 34 35 36 39 42 43 42 40 40 40 41 40 40 39 39 38
12 15 21 25 24 23 24 26 28 30 32 32 33 33 33 32 31 32 32 33 33 33 34 34 33 34 33 33 33 35 36 37 38 39 42 44 46 46 45 45 45 44 42 42
16 22 20 18 19 20 20 21 23 24 26 28 30 32 34 35 36 37 38 38 39 39 40 40 40 39 39 39 38 38 38 39 40 41 41 41 42 44 47 49 50 50 50 49
20 16 17 17 18 20 21 21 22 22 22 22 23 24 25 27 30 33 35 37 39 41 43 44 45 46 47 46 44 44 44 44 43 43 43 43 44 45 45 45 45 46 46 47
15 17 18 19 21 22 22 22 23 23 23 24 24 25 26 27 29 30 33 36 39 41 44 46 48 48 49 49 50 50 50 49 49 49 48 48 48 48 48 48 48 49 48 48
16 17 20 22 24 25 25 26 26 26 27 27 28 28 29 30 33 35 37 40 40 44 47 49 50 51 52 53 53 53 53 53 53 53 53 53 53 53 53 53 53 53 52 52
15 18 21 23 24 26 26 27 28 29 30 31 31 31 32 32 36 37 41 41 47 47 44 44 48 52 54 55 55 56 56 56 56 56 56 56 56 56 56 57 57 57 57 57
16 19 22 23 24 26 27 27 28 29 30 32 33 34 35 35 38 39 42 42 47 41 36 35 35 37 41 46 51 56 58 59 59 59 59 58 58 58 59 59 59 59 60 60
Wind_Direction
252 253 253 261 271 280 291 301 308 310 313 319 307 271 290 308 295 309 315 334 352 357 0 342 193 206 210 219 222 222 226 228 226 236 236 233 224 227 220 227 230 235 238 246
246 251 251 261 272 281 293 301 306 310 311 317 306 284 293 308 292 292 299 323 345 356 359 354 154 190 238 234 235 232 238 238 230 225 242 232 231 230 220 232 234 238 248 247
243 246 254 262 273 282 294 302 305 306 311 311 298 292 289 295 287 278 293 319 353 5 354 352 319 202 217 220 228 205 158 204 202 218 208 221 230 233 226 234 240 241 237 244
240 245 254 270 277 288 297 301 301 309 314 309 294 283 277 274 294 273 271 296 297 324 346 7 15 312 188 189 174 193 181 217 193 214 201 209 212 202 192 205 207 227 232 230
237 246 261 271 280 289 295 298 303 309 311 308 296 280 267 269 276 278 264 272 292 304 325 344 5 1 310 241 190 177 181 183 195 208 183 193 202 227 236 239 232 221 227 235
239 248 260 274 282 290 293 299 303 307 307 304 296 282 279 276 273 280 259 264 270 278 294 316 333 349 350 280 253 187 187 191 193 194 204 199 201 207 212 222 220 223 229 234
244 255 266 275 283 288 294 299 303 302 301 294 285 280 272 274 276 276 264 267 258 261 271 276 279 306 316 317 279 246 217 218 225 229 232 225 217 219 222 224 226 229 231 231
252 262 271 279 285 290 296 300 301 300 295 288 281 274 267 266 264 262 263 268 266 262 250 254 243 247 259 278 284 246 218 207 221 226 230 233 229 232 235 234 232 231 236 239
257 269 277 283 288 294 297 299 297 293 286 278 276 277 265 261 261 255 257 267 270 269 261 250 240 243 243 256 264 266 240 220 225 230 235 238 236 237 237 238 239 240 241 242
265 278 283 289 294 295 300 300 295 290 285 277 274 273 269 258 260 255 256 264 273 272 262 253 242 245 242 246 248 243 243 236 233 234 235 241 239 237 236 233 234 234 234 235
278 283 288 294 297 298 296 294 291 288 284 279 275 270 263 255 255 259 261 256 266 273 263 251 244 242 252 251 248 239 236 237 232 231 234 235 237 239 240 238 236 236 235 237
286 293 296 297 295 294 292 289 287 283 278 275 272 267 257 252 250 261 263 251 250 258 263 255 247 245 250 255 255 247 240 238 235 231 229 228 231 233 235 238 239 238 240 242
294 295 296 293 293 292 291 290 285 278 274 271 272 268 258 251 249 253 262 260 258 252 255 254 252 246 243 247 250 251 249 243 241 238 235 236 239 241 240 242 245 248 247 247
296 295 293 294 293 293 297 296 286 270 280 287 290 278 272 262 258 254 257 259 267 260 252 253 255 258 253 245 246 248 249 248 248 248 246 244 243 246 247 247 247 247 248 249
298 298 295 294 295 307 303 294 275 275 279 297 296 287 278 275 268 262 261 260 262 267 258 251 253 256 259 259 257 254 251 249 250 253 254 253 252 250 250 251 253 252 253 251
305 306 300 295 297 302 298 277 275 278 289 308 294 290 281 279 280 271 265 263 260 266 270 259 254 254 255 256 259 260 259 250 245 246 250 251 250 251 252 252 252 252 251 251
317 314 313 314 308 298 294 273 275 289 296 301 286 299 292 287 284 280 276 269 265 266 271 268 263 260 256 253 255 256 260 258 251 246 247 250 252 253 253 253 254 254 254 252
339 338 334 332 328 321 305 285 278 278 289 297 295 297 294 296 297 294 284 273 271 267 268 272 274 269 264 260 257 254 254 256 254 252 250 249 249 251 253 255 255 255 254 254
317 325 332 329 324 323 323 314 300 290 286 287 290 290 291 289 286 288 289 285 277 271 267 268 268 269 270 268 263 258 256 254 255 255 252 252 254 254 253 253 254 254 254 254
313 318 321 321 317 313 308 302 297 292 288 286 287 290 290 290 288 287 284 282 279 275 271 270 269 268 266 264 265 265 263 259 258 256 256 257 256 257 259 259 257 256 255 254
305 309 316 316 314 315 315 311 305 298 293 290 288 287 287 285 281 280 279 279 278 277 277 274 271 269 268 265 262 260 260 261 262 262 261 259 258 257 257 256 257 258 259 259
305 312 316 318 316 316 319 325 325 317 309 303 298 295 293 291 289 285 281 277 275 275 273 271 270 269 267 265 265 265 262 259 259 258 259 260 260 261 263 264 263 262 263 264
317 316 316 319 322 324 324 323 322 324 326 325 321 315 308 303 298 293 290 285 281 277 274 272 269 267 267 266 265 264 264 264 263 263 262 262 263 262 262 262 263 264 264 265
313 315 323 331 333 333 333 331 328 325 322 319 317 316 314 314 312 311 308 302 295 289 283 277 272 269 267 266 265 264 263 262 262 262 262 261 261 261 261 262 263 263 264 264
312 326 334 335 335 333 331 330 327 327 326 323 318 314 313 311 313 308 308 306 301 297 288 280 275 271 269 266 264 264 264 263 262 262 261 261 261 261 261 262 263 263 263 263
324 332 332 330 330 330 330 329 328 325 323 323 321 318 316 313 315 314 314 311 313 308 296 282 273 268 265 264 264 263 263 263 263 263 263 263 262 261 262 262 263 263 263 264
324 324 325 326 327 328 329 328 328 327 324 323 322 319 319 315 317 319 321 322 326 317 307 298 290 282 275 270 266 263 262 261 262 262 263 263 263 263 263 262 263 263 264 264
Height
5621 5623 5626 5626 5625 5625 5624 5622 5619 5615 5609 5604 5599 5597 5595 5593 5587 5583 5579 5575 5566 5559 5553 5550 5547 5551 5556 5558 5561 5565 5570 5575 5578 5584 5589 5592 5595 5603 5609 5616 5624 5629 5635 5641
5612 5615 5617 5617 5617 5617 5615 5614 5611 5606 5602 5598 5594 5592 5591 5587 5584 5580 5577 5572 5567 5560 5553 5548 5547 5546 5550 5552 5556 5560 5564 5566 5571 5579 5580 5581 5588 5589 5601 5607 5614 5619 5624 5630
5604 5607 5608 5610 5610 5609 5608 5605 5603 5600 5595 5591 5588 5586 5586 5583 5579 5576 5574 5571 5566 5561 5556 5552 5550 5550 5548 5550 5552 5556 5556 5555 5562 5570 5572 5578 5580 5583 5590 5597 5606 5610 5616 5619
5596 5599 5600 5602 5602 5601 5599 5597 5596 5593 5589 5586 5584 5580 5580 5578 5576 5572 5570 5569 5566 5563 5558 5554 5550 5549 5548 5548 5548 5550 5550 5557 5560 5567 5568 5569 5570 5576 5582 5591 5592 5601 5608 5612
5589 5592 5593 5595 5594 5593 5591 5590 5587 5584 5582 5580 5578 5574 5573 5572 5570 5568 5565 5564 5563 5560 5558 5556 5554 5552 5549 5548 5547 5548 5550 5553 5557 5561 5561 5564 5568 5572 5577 5580 5587 5591 5599 5603
5584 5585 5586 5588 5586 5585 5584 5582 5579 5577 5575 5573 5571 5569 5566 5564 5563 5563 5560 5559 5558 5557 5556 5555 5553 5551 5550 5547 5547 5545 5548 5552 5555 5558 5562 5565 5567 5570 5575 5579 5583 5586 5592 5597
5576 5578 5579 5580 5579 5578 5577 5577 5571 5569 5568 5565 5563 5561 5561 5559 5558 5556 5555 5553 5552 5552 5552 5553 5551 5549 5547 5547 5546 5546 5546 5550 5552 5555 5558 5561 5564 5567 5569 5573 5577 5579 5585 5589
5570 5571 5572 5572 5571 5571 5569 5565 5562 5560 5558 5556 5555 5552 5552 5552 5551 5550 5549 5547 5546 5546 5546 5546 5547 5546 5545 5542 5542 5544 5544 5547 5549 5552 5555 5558 5561 5562 5564 5567 5570 5572 5576 5581
5564 5565 5565 5564 5562 5560 5559 5555 5552 5549 5548 5547 5546 5544 5543 5544 5543 5542 5542 5541 5540 5539 5539 5540 5541 5542 5541 5540 5539 5539 5541 5543 5546 5548 5551 5553 5554 5557 5560 5563 5565 5567 5570 5573
5556 5558 5556 5554 5553 5551 5548 5544 5541 5539 5538 5537 5537 5535 5535 5535 5535 5534 5534 5535 5534 5533 5532 5533 5535 5537 5537 5538 5538 5538 5539 5539 5541 5544 5545 5548 5550 5553 5555 5557 5559 5562 5564 5566
5549 5548 5547 5546 5543 5540 5536 5533 5531 5529 5527 5525 5524 5524 5525 5526 5526 5526 5527 5527 5527 5527 5526 5527 5528 5530 5531 5531 5533 5533 5535 5536 5537 5539 5541 5543 5546 5548 5550 5552 5554 5556 5558 5559
5541 5540 5538 5537 5533 5530 5527 5524 5521 5518 5516 5514 5513 5514 5515 5516 5517 5518 5519 5519 5521 5522 5521 5521 5521 5522 5524 5526 5527 5528 5529 5531 5533 5535 5536 5538 5540 5542 5544 5546 5548 5549 5550 5552
5533 5531 5529 5526 5523 5520 5517 5514 5511 5509 5507 5507 5507 5507 5507 5509 5509 5510 5511 5512 5513 5514 5515 5516 5515 5515 5517 5519 5520 5522 5524 5524 5526 5528 5530 5532 5534 5535 5536 5537 5539 5541 5542 5543
5524 5522 5520 5517 5514 5511 5508 5505 5504 5504 5504 5503 5502 5501 5501 5502 5502 5503 5504 5506 5507 5507 5508 5509 5509 5510 5510 5511 5513 5515 5517 5517 5519 5520 5522 5523 5525 5527 5528 5529 5530 5531 5533 5535
5516 5514 5511 5509 5507 5505 5503 5501 5500 5501 5500 5499 5497 5496 5496 5496 5496 5496 5497 5498 5500 5501 5501 5502 5503 5504 5504 5505 5505 5506 5507 5508 5510 5511 5513 5514 5517 5517 5518 5519 5521 5522 5523 5524
5510 5507 5506 5504 5502 5501 5499 5498 5497 5497 5496 5494 5492 5491 5490 5490 5489 5489 5489 5490 5492 5493 5494 5494 5495 5496 5497 5498 5498 5499 5500 5501 5502 5503 5505 5507 5508 5509 5510 5512 5513 5514 5515 5516
5504 5503 5502 5500 5498 5496 5494 5494 5493 5492 5491 5490 5488 5486 5486 5484 5483 5483 5483 5483 5484 5485 5486 5486 5486 5487 5489 5490 5491 5492 5492 5493 5494 5495 5496 5497 5499 5500 5501 5502 5504 5505 5506 5507
5503 5501 5499 5497 5494 5492 5489 5488 5488 5487 5486 5485 5483 5482 5481 5479 5478 5477 5476 5476 5476 5477 5477 5478 5478 5479 5480 5481 5482 5483 5484 5485 5486 5486 5487 5488 5490 5491 5492 5493 5494 5495 5496 5497
5500 5498 5496 5494 5491 5489 5487 5485 5484 5483 5481 5480 5478 5477 5475 5474 5473 5471 5470 5469 5469 5468 5468 5468 5469 5469 5470 5470 5471 5472 5473 5474 5475 5476 5477 5478 5479 5481 5482 5482 5484 5485 5486 5486
5497 5495 5493 5491 5489 5486 5484 5482 5479 5477 5475 5473 5472 5470 5468 5467 5466 5464 5463 5462 5461 5460 5460 5459 5458 5458 5459 5459 5460 5460 5461 5462 5463 5464 5465 5466 5467 5469 5470 5471 5473 5473 5475 5475
5494 5492 5490 5487 5484 5481 5478 5475 5472 5469 5467 5465 5463 5461 5459 5458 5456 5455 5454 5453 5452 5450 5449 5448 5447 5447 5447 5447 5447 5448 5448 5449 5449 5450 5451 5452 5453 5455 5457 5458 5459 5459 5460 5461
5490 5488 5485 5482 5479 5476 5473 5469 5465 5461 5458 5455 5453 5451 5449 5447 5445 5444 5442 5441 5440 5438 5437 5436 5436 5435 5435 5434 5433 5433 5434 5435 5436 5437 5438 5438 5439 5440 5441 5442 5443 5444 5445 5446
5485 5483 5481 5478 5474 5471 5468 5464 5460 5457 5453 5450 5446 5443 5440 5437 5435 5432 5430 5428 5426 5424 5422 5421 5420 5420 5419 5419 5419 5419 5419 5419 5419 5420 5421 5421 5422 5424 5425 5426 5426 5427 5428 5429
5481 5479 5476 5473 5469 5466 5462 5459 5455 5451 5448 5444 5441 5438 5434 5431 5427 5423 5419 5415 5412 5408 5405 5403 5402 5402 5401 5401 5402 5402 5403 5404 5404 5405 5405 5406 5407 5408 5409 5410 5411 5412 5413 5414
5477 5474 5471 5468 5465 5461 5458 5454 5450 5446 5442 5438 5434 5430 5426 5422 5419 5414 5410 5404 5399 5393 5388 5385 5383 5382 5381 5382 5382 5383 5384 5385 5386 5387 5388 5390 5391 5391 5392 5393 5394 5395 5396 5397
5472 5470 5467 5464 5461 5457 5453 5449 5445 5440 5436 5431 5427 5422 5418 5414 5409 5404 5398 5391 5384 5375 5367 5363 5360 5360 5360 5360 5361 5362 5363 5364 5366 5367 5368 5369 5371 5372 5373 5374 5375 5376 5377 5378
5468 5466 5463 5460 5456 5452 5448 5444 5439 5434 5429 5425 5420 5415 5410 5404 5399 5393 5386 5379 5369 5359 5352 5347 5344 5341 5340 5339 5340 5340 5342 5343 5344 5346 5347 5349 5350 5351 5353 5354 5355 5356 5357 5358